Flag for Germany Weather past 2 weeks in Flensburg, Schleswig-Holstein, Germany

Now
63 °F

Overcast.


Feels Like: 63 °F
Forecast: 59 / 67 °F
Wind: 2 mph from Northeast

Location: Schleswig

Current Time: Aug 31, 2015 at 1:39:31 AM

Latest Report: Aug 31, 2015 at 1:00 AM


Visibility: 16 mi

Pressure: 30.04 "Hg

Humidity: 87%

Dew point: 59 °F

Location of FlensburgLocation

Historic Weather in Flensburg — Graph

°F

Flensburg temperature yesterday

Maximum temperature yesterday: 69 °F (at 2:00 PM)
Minimum temperature yesterday: 56 °F (at 4:00 AM)
Average temperature yesterday: 63 °F

Past Weeks' High & Low Weather Summary

 TemperatureHumidityPressure
High76 °F (Aug 21, 3:00 PM)100% (Aug 16, 1:00 AM)30.31 "Hg (Aug 16, 1:00 AM)
Low51 °F (Aug 29, 4:00 AM)36% (Aug 21, 3:00 PM)29.59 "Hg (Aug 24, 10:00 PM)
Average64 °F83%30.00 "Hg
* Reported Aug 16 1:00 AM — Aug 30 11:00 PM, Flensburg, Weather by CustomWeather, © 2015

Note: Actual official high and low records may vary slightly from our data, if they occured in-between our weather recording intervals... More about our weather records

Advertising

Flensburg weather history for previous 24 hours

 ConditionsComfort  
Time TempWeatherWind HumidityBarometerVisibility
11:00 PM
Sun, Aug 30
62 °FOvercast.3 mph81%30.06 "Hg22 mi
10:00 PM63 °FOvercast.3 mph78%30.07 "Hg22 mi
9:00 PM64 °FPassing clouds.3 mph76%30.07 "Hg22 mi
8:00 PM65 °FOvercast.3 mph73%30.08 "Hg25 mi
7:00 PM66 °FOvercast.3 mph68%30.08 "Hg25 mi
6:00 PM66 °FOvercast.3 mph69%30.08 "Hg25 mi
4:00 PM67 °FOvercast.6 mph65%30.10 "Hg25 mi
3:00 PM68 °FOvercast.5 mph63%30.11 "Hg25 mi
2:00 PM69 °FOvercast.3 mph66%30.12 "Hg25 mi
1:00 PM69 °FOvercast.3 mph71%30.13 "Hg16 mi
12:00 PM68 °FOvercast.3 mph68%30.12 "Hg19 mi
11:00 AM67 °FOvercast.2 mph72%30.13 "Hg12 mi
10:00 AM62 °FOvercast.2 mph85%30.14 "Hg6 mi
9:00 AM59 °FOvercast.2 mph91%30.15 "Hg4 mi
8:00 AM58 °FFog.2 mph94%30.14 "Hg3 mi
7:00 AM57 °FFog.1 mph94%30.13 "Hg3 mi
4:00 AM56 °FOvercast.1 mph94%30.14 "Hg9 mi
3:00 AM57 °FOvercast.1 mph90%30.16 "Hg9 mi
2:00 AM58 °FOvercast.2 mph85%30.16 "Hg16 mi
1:00 AM60 °FPassing clouds.2 mph80%30.16 "Hg16 mi
Weather by CustomWeather, © 2015

See weather overviewHow to use our weather pages